FW0772 Weather Reports


time (UTC)temp
F
wind
direction
speed
knots
gust
knots
rain 1hr
in
rain 24hr
in
rain mn
in
humidity
%
barometer
mb
20240223044521 48 281 3.5 13.0 0.00 0.07 0.01 74 988.6
20240223043028 48 248 2.6 9.6 0.00 0.07 0.01 75 988.1
20240223041518 49 268 0.9 7.0 0.00 0.07 0.01 76 987.6
20240223040023 49 286 2.6 9.6 0.00 0.07 0.01 75 987.5
20240223034521 49 279 5.2 14.8 0.00 0.07 0.01 75 987.1
20240223033029 49 246 8.7 15.6 0.00 0.07 0.01 76 986.8
20240223031528 50 273 6.1 15.6 0.00 0.07 0.01 83 986.5
20240223030022 50 291 2.6 12.2 0.00 0.07 0.01 91 985.9
20240223024532 50 216 3.5 9.6 0.00 0.07 0.01 93 985.4
20240223023019 50 232 1.7 9.6 0.00 0.07 0.01 94 984.8
20240223021525 49 214 2.6 7.8 0.00 0.07 0.01 94 984.3
20240223020025 49 112 1.7 8.7 0.00 0.07 0.01 95 984.1
20240223014521 49 114 2.6 7.0 0.00 0.07 0.01 96 984.0
20240223013021 49 0 1.7 7.8 0.00 0.07 0.01 96 983.6
20240223011520 49 225 0.9 7.8 0.00 0.07 0.01 96 983.8
20240223010020 49 0 0.9 7.8 0.00 0.07 0.01 96 983.8
20240223004520 49 211 0.0 6.1 0.00 0.07 0.01 97 984.0
20240223003021 49 208 0.9 9.6 0.00 0.07 0.01 97 983.9
20240223001520 49 178 1.7 7.8 0.01 0.07 0.01 96 984.0
20240223000026 49 236 1.7 7.0 0.01 0.07 0.01 96 984.0
20240222234529 49 181 1.7 7.8 0.01 0.07 0.01 96 983.9
20240222233036 50 105 1.7 8.7 0.00 0.06 0.00 96 984.1
20240222231527 50 0 1.7 7.0 0.00 0.05 0.00 96 984.0
20240222230020 50 144 0.9 6.1 0.00 0.05 0.00 96 984.1
20240222224521 49 123 1.7 7.8 0.00 0.05 0.05 96 984.3
20240222223023 49 148 0.9 6.1 0.00 0.05 0.05 97 984.3
20240222221520 49 0 0.9 5.2 0.00 0.05 0.05 97 984.5
20240222220023 49 0 1.7 6.1 0.00 0.05 0.05 97 984.8
20240222214520 49 247 0.9 6.1 0.00 0.05 0.05 97 984.9
20240222213020 49 238 1.7 7.8 0.00 0.05 0.05 97 985.3
20240222211532 49 0 0.9 6.1 0.00 0.05 0.05 97 985.5
20240222210024 48 109 1.7 7.0 0.00 0.05 0.05 98 985.6
20240222204521 48 149 0.9 6.1 0.00 0.05 0.05 98 985.9
20240222203021 48 0 1.7 5.2 0.00 0.05 0.05 98 986.0
20240222201520 48 142 1.7 6.1 0.00 0.05 0.05 98 986.2
20240222200020 48 139 1.7 6.1 0.00 0.05 0.05 98 986.4
20240222194519 48 138 0.9 7.8 0.00 0.05 0.05 98 986.8
20240222193022 48 153 0.9 5.2 0.00 0.05 0.05 98 987.1
20240222191520 47 207 1.7 6.1 0.00 0.05 0.05 98 987.2
20240222190021 48 144 0.9 6.1 0.00 0.05 0.05 98 987.2
20240222184521 48 128 0.9 7.0 0.00 0.05 0.05 98 987.7
20240222183020 48 0 0.0 6.1 0.00 0.05 0.05 98 987.9
20240222181542 48 130 0.9 3.5 0.00 0.05 0.05 98 988.3
20240222180024 48 130 0.9 5.2 0.00 0.05 0.05 98 988.5
20240222174526 48 123 0.9 3.5 0.00 0.05 0.05 98 988.6
20240222173020 48 144 0.9 5.2 0.00 0.05 0.05 98 988.7
20240222171522 48 0 0.9 3.5 0.00 0.05 0.05 98 989.3
20240222170022 48 144 0.0 4.3 0.00 0.05 0.05 98 989.3
20240222164524 48 122 0.9 6.1 0.00 0.05 0.05 98 989.3
20240222163020 48 0 0.0 2.6 0.00 0.05 0.05 98 989.8
20240222161520 48 0 0.9 4.3 0.00 0.05 0.05 97 990.0
20240222160023 48 0 0.0 2.6 0.00 0.05 0.05 98 990.2
20240222154520 48 0 0.0 2.6 0.00 0.05 0.05 97 990.4
20240222153027 48 168 0.0 5.2 0.00 0.04 0.04 97 990.5
20240222151535 48 0 0.0 1.7 0.00 0.04 0.04 97 990.8
20240222150024 48 182 0.0 2.6 0.00 0.04 0.04 97 991.0
20240222144532 48 105 0.9 4.3 0.00 0.04 0.04 97 991.0
20240222143021 48 105 0.0 4.3 0.00 0.04 0.04 97 991.2
20240222141529 48 136 0.0 3.5 0.00 0.04 0.04 97 991.3
20240222140020 48 112 0.0 4.3 0.00 0.04 0.04 97 991.6
20240222134519 47 0 0.0 6.1 0.00 0.04 0.04 97 991.8
20240222133025 47 0 0.0 2.6 0.00 0.04 0.04 97 992.1
20240222131523 47 99 0.0 6.1 0.00 0.04 0.04 97 992.5
20240222130030 47 0 0.9 6.1 0.00 0.04 0.04 97 992.8
20240222124521 47 0 0.9 4.3 0.00 0.04 0.04 97 992.9
20240222123020 47 170 0.0 2.6 0.00 0.04 0.04 97 993.3
20240222121520 47 0 0.9 6.1 0.00 0.03 0.03 97 993.7
20240222120055 47 0 0.0 1.7 0.00 0.03 0.03 97 993.9
20240222120020 47 0 0.0 1.7 0.00 0.03 0.03 97 993.9
20240222114521 47 0 0.9 4.3 0.00 0.03 0.03 97 994.3
20240222113023 47 0 0.9 3.5 0.00 0.03 0.03 97 994.5
20240222111519 47 242 0.9 4.3 0.01 0.03 0.03 96 994.8
20240222110021 47 194 0.9 4.3 0.02 0.03 0.03 96 995.0
20240222104521 46 118 0.0 4.3 0.01 0.03 0.03 96 995.1
20240222103021 46 208 0.9 3.5 0.01 0.03 0.03 96 995.4
20240222101520 46 0 0.0 1.7 0.00 0.02 0.02 96 995.5
20240222100029 46 134 0.9 5.2 0.00 0.01 0.01 95 995.5
20240222094521 46 0 0.9 3.5 0.00 0.01 0.01 95 995.9
20240222093031 46 0 0.0 6.1 0.00 0.01 0.01 95 995.9
20240222091516 46 143 0.9 5.2 0.00 0.01 0.01 95 996.1
20240222090028 46 0 0.9 4.3 0.00 0.01 0.01 95 996.2
20240222084520 46 134 0.9 3.5 0.00 0.01 0.01 94 996.3
20240222083020 46 55 0.9 3.5 0.00 0.00 0.00 94 996.6
20240222081521 46 144 0.0 1.7 0.00 0.00 0.00 93 996.7
20240222080021 45 0 0.9 4.3 0.00 0.00 0.00 92 996.9
20240222074523 45 0 0.0 1.7 0.00 0.02 0.00 91 997.1
20240222073025 45 156 0.0 2.6 0.00 0.01 0.00 91 997.3
20240222071525 45 121 0.9 3.5 0.00 0.01 0.00 89 997.6
20240222070023 45 225 0.0 2.6 0.00 0.01 0.00 88 997.8
20240222064521 45 236 0.0 4.3 0.00 0.01 0.00 88 998.0
20240222063028 45 51 0.9 7.0 0.00 0.01 0.00 87 998.1
20240222061523 45 213 0.9 3.5 0.00 0.01 0.00 86 998.2
20240222060022 45 220 0.9 6.1 0.00 0.01 0.00 85 998.5
20240222054520 45 167 0.9 6.1 0.00 0.01 0.00 83 998.5
20240222053020 45 151 0.9 5.2 0.00 0.01 0.00 82 998.9
20240222051522 45 0 0.9 3.5 0.00 0.01 0.00 83 999.0
20240222050020 45 0 0.0 2.6 0.00 0.01 0.00 83 999.1